Year,Month,Day,Hour,Minute,Value (Times are PST for temperature in C)
2017,10,24,17,16,13.40
2017,10,24,17,17,13.40
2017,10,24,17,18,13.50
2017,10,24,17,19,13.30
2017,10,24,17,20,13.30
2017,10,24,17,21,13.90
2017,10,24,17,22,13.40
2017,10,24,17,23,12.90
2017,10,24,17,24,13.10
2017,10,24,17,25,13.10
2017,10,24,17,26,13.00
2017,10,24,17,27,12.90
2017,10,24,17,28,12.80
2017,10,24,17,29,12.80
2017,10,24,17,30,12.70
2017,10,24,17,31,12.60
2017,10,24,17,32,12.60
2017,10,24,17,33,12.60
2017,10,24,17,34,12.60
2017,10,24,17,35,12.60
2017,10,24,17,36,12.60
2017,10,24,17,37,12.50
2017,10,24,17,38,12.50
2017,10,24,17,39,12.40
2017,10,24,17,40,12.40
2017,10,24,17,41,12.40
2017,10,24,17,42,12.30
2017,10,24,17,43,12.30
2017,10,24,17,44,12.30
2017,10,24,17,45,12.20
2017,10,24,17,46,12.20
2017,10,24,17,47,12.20
2017,10,24,17,48,12.10
2017,10,24,17,49,12.10
2017,10,24,17,50,12.10
2017,10,24,17,51,12.00
2017,10,24,17,52,12.00
2017,10,24,17,53,11.90
2017,10,24,17,54,11.90
2017,10,24,17,55,11.90
2017,10,24,17,56,11.80
2017,10,24,17,57,11.80
2017,10,24,17,58,11.80
2017,10,24,17,59,11.70
2017,10,24,18,00,11.70
2017,10,24,18,01,11.70
2017,10,24,18,02,11.60
2017,10,24,18,03,11.60
2017,10,24,18,04,11.60
2017,10,24,18,05,11.60
2017,10,24,18,06,11.50
2017,10,24,18,07,11.50
2017,10,24,18,08,11.40
2017,10,24,18,09,11.40
2017,10,24,18,10,11.40
2017,10,24,18,11,11.30
2017,10,24,18,12,11.30
2017,10,24,18,13,11.30
2017,10,24,18,14,11.30
2017,10,24,18,15,11.20
2017,10,24,18,16,11.20
2017,10,24,18,17,11.20
2017,10,24,18,18,11.10
2017,10,24,18,19,11.10
2017,10,24,18,20,11.10
2017,10,24,18,21,11.00
2017,10,24,18,22,11.00
2017,10,24,18,23,10.90
2017,10,24,18,24,10.90
2017,10,24,18,25,10.90
2017,10,24,18,26,10.80
2017,10,24,18,27,10.80
2017,10,24,18,28,10.80
2017,10,24,18,29,10.80
2017,10,24,18,30,10.80
2017,10,24,18,31,10.70
2017,10,24,18,32,10.70
2017,10,24,18,33,10.70
2017,10,24,18,34,10.70
2017,10,24,18,35,10.60
2017,10,24,18,36,10.60
2017,10,24,18,37,10.60
2017,10,24,18,38,10.50
2017,10,24,18,39,10.50
2017,10,24,18,40,10.50
2017,10,24,18,41,10.40
2017,10,24,18,42,10.40
2017,10,24,18,43,10.40
2017,10,24,18,44,10.40
2017,10,24,18,45,10.30
2017,10,24,18,46,10.30
2017,10,24,18,47,10.30
2017,10,24,18,48,10.30
2017,10,24,18,49,10.30
2017,10,24,18,50,10.20
2017,10,24,18,51,10.20
2017,10,24,18,52,10.20
2017,10,24,18,53,10.20
2017,10,24,18,54,10.10
2017,10,24,18,55,10.10
2017,10,24,18,56,10.10
2017,10,24,18,57,10.10
2017,10,24,18,58,10.00
2017,10,24,18,59,10.00
2017,10,24,19,00,10.00
2017,10,24,19,01,9.90
2017,10,24,19,02,9.90
2017,10,24,19,03,9.90
2017,10,24,19,04,9.90
2017,10,24,19,05,9.90
2017,10,24,19,06,9.80
2017,10,24,19,07,9.80
2017,10,24,19,08,9.80
2017,10,24,19,09,9.80
2017,10,24,19,10,9.80
2017,10,24,19,11,9.70
2017,10,24,19,12,9.70
2017,10,24,19,13,9.70
2017,10,24,19,14,9.70
2017,10,24,19,15,9.60
2017,10,24,19,16,9.60
2017,10,24,19,17,9.60
2017,10,24,19,18,9.60
2017,10,24,19,19,9.60
2017,10,24,19,20,9.60
2017,10,24,19,21,9.60
2017,10,24,19,22,9.60
2017,10,24,19,23,9.50
2017,10,24,19,24,9.50
2017,10,24,19,25,9.50
2017,10,24,19,26,9.40
2017,10,24,19,27,9.40
2017,10,24,19,28,9.40
2017,10,24,19,29,9.40
2017,10,24,19,30,9.40
2017,10,24,19,31,9.30
2017,10,24,19,32,9.30
2017,10,24,19,33,9.30
2017,10,24,19,34,9.30
2017,10,24,19,35,9.30
2017,10,24,19,36,9.30
2017,10,24,19,37,9.30
2017,10,24,19,38,9.20
2017,10,24,19,39,9.20
2017,10,24,19,40,9.20
2017,10,24,19,41,9.20
2017,10,24,19,42,9.20
2017,10,24,19,43,9.20
2017,10,24,19,44,9.20
2017,10,24,19,45,9.20
2017,10,24,19,46,9.20
2017,10,24,19,47,9.10
2017,10,24,19,48,9.10
2017,10,24,19,49,9.10
2017,10,24,19,50,9.10
2017,10,24,19,51,9.10
2017,10,24,19,52,9.10
2017,10,24,19,53,9.10
2017,10,24,19,54,9.10
2017,10,24,19,55,9.10
2017,10,24,19,56,9.00
2017,10,24,19,57,9.00
2017,10,24,19,58,9.00
2017,10,24,19,59,9.00
2017,10,24,20,00,9.00
2017,10,24,20,01,9.00
2017,10,24,20,02,9.00
2017,10,24,20,03,9.00
2017,10,24,20,04,8.90
2017,10,24,20,05,8.90
2017,10,24,20,06,8.90
2017,10,24,20,07,8.90
2017,10,24,20,08,8.90
2017,10,24,20,09,8.90
2017,10,24,20,10,8.90
2017,10,24,20,11,8.90
2017,10,24,20,12,8.90
2017,10,24,20,13,8.90
2017,10,24,20,14,8.80
2017,10,24,20,15,8.80
2017,10,24,20,16,8.80
2017,10,24,20,17,8.80
2017,10,24,20,18,8.80
2017,10,24,20,19,8.80
2017,10,24,20,20,8.80
2017,10,24,20,21,8.80
2017,10,24,20,22,8.70
2017,10,24,20,23,8.70
2017,10,24,20,24,8.70
2017,10,24,20,25,8.70
2017,10,24,20,26,8.70
2017,10,24,20,27,8.70
2017,10,24,20,28,8.70
2017,10,24,20,29,8.70
2017,10,24,20,30,8.70
2017,10,24,20,31,8.70
2017,10,24,20,32,8.70
2017,10,24,20,33,8.60
2017,10,24,20,34,8.60
2017,10,24,20,35,8.60
2017,10,24,20,36,8.60
2017,10,24,20,37,8.60
2017,10,24,20,38,8.60
2017,10,24,20,39,8.60
2017,10,24,20,40,8.60
2017,10,24,20,41,8.60
2017,10,24,20,42,8.60
2017,10,24,20,43,8.60
2017,10,24,20,44,8.60
2017,10,24,20,45,8.60
2017,10,24,20,46,8.60
2017,10,24,20,47,8.60
2017,10,24,20,48,8.60
2017,10,24,20,49,8.60
2017,10,24,20,50,8.60
2017,10,24,20,51,8.60
2017,10,24,20,52,8.50
2017,10,24,20,53,8.60
2017,10,24,20,54,8.50
2017,10,24,20,55,8.50
2017,10,24,20,56,8.50
2017,10,24,20,57,8.50
2017,10,24,20,58,8.50
2017,10,24,20,59,8.50
2017,10,24,21,00,8.50
2017,10,24,21,01,8.50
2017,10,24,21,02,8.40
2017,10,24,21,03,8.40
2017,10,24,21,04,8.40
2017,10,24,21,05,8.40
2017,10,24,21,06,8.40
2017,10,24,21,07,8.40
2017,10,24,21,08,8.40
2017,10,24,21,09,8.40
2017,10,24,21,10,8.40
2017,10,24,21,11,8.40
2017,10,24,21,12,8.40
2017,10,24,21,13,8.40
2017,10,24,21,14,8.40
2017,10,24,21,15,8.40
2017,10,24,21,16,8.40
2017,10,24,21,17,8.30
2017,10,24,21,18,8.30
2017,10,24,21,19,8.30
2017,10,24,21,20,8.30
2017,10,24,21,21,8.30
2017,10,24,21,22,8.30
2017,10,24,21,23,8.30
2017,10,24,21,24,8.30
2017,10,24,21,25,8.30
2017,10,24,21,26,8.30
2017,10,24,21,27,8.30
2017,10,24,21,28,8.30
2017,10,24,21,29,8.30
2017,10,24,21,30,8.30
2017,10,24,21,31,8.30
2017,10,24,21,32,8.30
2017,10,24,21,33,8.30
2017,10,24,21,34,8.30
2017,10,24,21,35,8.30
2017,10,24,21,36,8.30
2017,10,24,21,37,8.30
2017,10,24,21,38,8.20
2017,10,24,21,39,8.20
2017,10,24,21,40,8.20
2017,10,24,21,41,8.20
2017,10,24,21,42,8.20
2017,10,24,21,43,8.20
2017,10,24,21,44,8.20
2017,10,24,21,45,8.20
2017,10,24,21,46,8.20
2017,10,24,21,47,8.20
2017,10,24,21,48,8.20
2017,10,24,21,49,8.20
2017,10,24,21,50,8.20
2017,10,24,21,51,8.20
2017,10,24,21,52,8.10
2017,10,24,21,53,8.10
2017,10,24,21,54,8.10
2017,10,24,21,55,8.10
2017,10,24,21,56,8.10
2017,10,24,21,57,8.10
2017,10,24,21,58,8.10
2017,10,24,21,59,8.10
2017,10,24,22,00,8.10
2017,10,24,22,01,8.10
2017,10,24,22,02,8.10
2017,10,24,22,03,8.10
2017,10,24,22,04,8.10
2017,10,24,22,05,8.10
2017,10,24,22,06,8.10
2017,10,24,22,07,8.10
2017,10,24,22,08,8.10
2017,10,24,22,09,8.10
2017,10,24,22,10,8.10
2017,10,24,22,11,8.10
2017,10,24,22,12,8.10
2017,10,24,22,13,8.10
2017,10,24,22,14,8.10
2017,10,24,22,15,8.10
2017,10,24,22,16,8.10
2017,10,24,22,17,8.10
2017,10,24,22,18,8.10
2017,10,24,22,19,8.10
2017,10,24,22,20,8.10
2017,10,24,22,21,8.10
2017,10,24,22,22,8.10
2017,10,24,22,23,8.10
2017,10,24,22,24,8.10
2017,10,24,22,25,8.10
2017,10,24,22,26,8.10
2017,10,24,22,27,8.10
2017,10,24,22,28,8.10
2017,10,24,22,29,8.10
2017,10,24,22,30,8.10
2017,10,24,22,31,8.10
2017,10,24,22,32,8.10
2017,10,24,22,33,8.20
2017,10,24,22,34,8.20
2017,10,24,22,35,8.20
2017,10,24,22,36,8.20
2017,10,24,22,37,8.20
2017,10,24,22,38,8.20
2017,10,24,22,39,8.20
2017,10,24,22,40,8.20
2017,10,24,22,41,8.20
2017,10,24,22,42,8.20
2017,10,24,22,43,8.20
2017,10,24,22,44,8.20
2017,10,24,22,45,8.20
2017,10,24,22,46,8.20
2017,10,24,22,47,8.20
2017,10,24,22,48,8.20
2017,10,24,22,49,8.20
2017,10,24,22,50,8.20
2017,10,24,22,51,8.20
2017,10,24,22,52,8.20
2017,10,24,22,53,8.20
2017,10,24,22,54,8.20
2017,10,24,22,55,8.20
2017,10,24,22,56,8.20
2017,10,24,22,57,8.20
2017,10,24,22,58,8.20
2017,10,24,22,59,8.20
2017,10,24,23,00,8.20
2017,10,24,23,01,8.20
2017,10,24,23,02,8.20
2017,10,24,23,03,8.20
2017,10,24,23,04,8.20
2017,10,24,23,05,8.20
2017,10,24,23,06,8.20
2017,10,24,23,07,8.20
2017,10,24,23,08,8.10
2017,10,24,23,09,8.10
2017,10,24,23,10,8.10
2017,10,24,23,11,8.10
2017,10,24,23,12,8.10
2017,10,24,23,13,8.10
2017,10,24,23,14,8.10
2017,10,24,23,15,8.10
2017,10,24,23,16,8.10
2017,10,24,23,17,8.10
2017,10,24,23,18,8.10
2017,10,24,23,19,8.10
2017,10,24,23,20,8.10
2017,10,24,23,21,8.10
2017,10,24,23,22,8.10
2017,10,24,23,23,8.10
2017,10,24,23,24,8.10
2017,10,24,23,25,8.10
2017,10,24,23,26,8.10
2017,10,24,23,27,8.10
2017,10,24,23,28,8.10
2017,10,24,23,29,8.10
2017,10,24,23,30,8.10
2017,10,24,23,31,8.10
2017,10,24,23,32,8.10
2017,10,24,23,33,8.10
2017,10,24,23,34,8.10
2017,10,24,23,35,8.10
2017,10,24,23,36,8.10
2017,10,24,23,37,8.10
2017,10,24,23,38,8.10
2017,10,24,23,39,8.10
2017,10,24,23,40,8.10
2017,10,24,23,41,8.20
2017,10,24,23,42,8.20
2017,10,24,23,43,8.20
2017,10,24,23,44,8.20
2017,10,24,23,45,8.20
2017,10,24,23,46,8.20
2017,10,24,23,47,8.20
2017,10,24,23,48,8.20
2017,10,24,23,49,8.20
2017,10,24,23,50,8.20
2017,10,24,23,51,8.20
2017,10,24,23,52,8.20
2017,10,24,23,53,8.20
2017,10,24,23,54,8.20
2017,10,24,23,55,8.20
2017,10,24,23,56,8.20
2017,10,24,23,57,8.20
2017,10,24,23,58,8.20
2017,10,24,23,59,8.20
